Overview Statistics Trail Chart Weather Telemetry Raw packets
 

This is the latest recevied weather packets stored in our database for station/object N6ZHV-13. If no packets are shown the sender has not sent any weather packets the latest 10 day(s).

<< 18 19 20 21 22 23 24 >>
Time Temp. Humidity Pressure Rain* Wind** Luminosity Snow
1788560222 27.22° C 36% 1007.7 hPa 0 mm - - -
1788559922 26.67° C 38% 1007.8 hPa 0 mm - - -
1788559622 26.67° C 41% 1007.9 hPa 0 mm - - -
1788559322 27.22° C 43% 1007.9 hPa 0 mm - - -
1788559022 27.22° C 47% 1007.9 hPa 0 mm - - -
1788558722 27.22° C 47% 1007.9 hPa 0 mm - - -
1788558441 27.22° C 47% 1008 hPa 0 mm - - -
1788558122 27.22° C 48% 1008 hPa 0 mm - - -
1788557822 27.22° C 47% 1007.9 hPa 0 mm - - -
1788557522 27.22° C 46% 1008 hPa 0 mm - - -
1788557222 26.67° C 46% 1008.1 hPa 0 mm - - -
1788556922 27.22° C 47% 1008.3 hPa 0 mm - - -
1788556628 26.67° C 47% 1008.3 hPa 0 mm - - -
1788556322 26.67° C 47% 1008.4 hPa 0 mm - - -
1788556022 26.67° C 48% 1008.3 hPa 0 mm - - -
1788555722 26.11° C 49% 1008.4 hPa 0 mm - - -
1788555422 26.11° C 50% 1008.4 hPa 0 mm - - -
1788555122 26.11° C 50% 1008.5 hPa 0 mm - - -
1788554843 26.67° C 48% 1008.5 hPa 0 mm - - -
1788554522 26.11° C 49% 1008.6 hPa 0 mm - - -
1788554222 26.67° C 48% 1008.6 hPa 0 mm - - -
1788553922 26.11° C 48% 1008.7 hPa 0 mm - - -
1788553622 26.67° C 49% 1008.7 hPa 0 mm - - -
1788553322 26.11° C 49% 1008.5 hPa 0 mm - - -
1788553022 26.11° C 49% 1008.6 hPa 0 mm - - -

* Rain latest hour (hover to see other rain measurements)
** Current wind speed in m/s (hover to see current wind gust speed)